Regional Weather Roundup
Issued by NWS

Home | Current Version | Previous Version | Text Only | Print | Product List | Glossary Off
Versions: 1 2 3 4 5 6 7 8 9 10 11 12 13 14 15 16 17 18 19 20 21 22 23 24 25 26 27 28 29 30 31 32 33 34 35 36 37 38 39 40 41 42 43 44 45 46 47 48 49 50

000
ASUS43 KMPX 271501
RWRMN
WEATHER ROUNDUP FOR MINNESOTA
NATIONAL WEATHER SERVICE TWIN CITIES/CHANHASSEN MN
1000 AM CDT THU APR 27 2017


NOTE: "FAIR" INDICATES FEW OR NO CLOUDS BELOW 12,000 FEET WITH NO
SIGNIFICANT WEATHER AND/OR OBSTRUCTIONS TO VISIBILITY. N/A MEANS
CURRENT SKY AND/OR WEATHER CONDITIONS ARE NOT AVAILABLE.

MNZ060>063-068>070-271600-
   Twin Cities Metro

CITY           SKY/WX    TMP DP  RH WIND       PRES   REMARKS
TWIN CITIES    CLOUDY    33  27  78 N12       29.56R WCI  24
ST PAUL        CLOUDY    33  28  81 NW14      29.57R WCI  23
CRYSTAL        CLOUDY    32  24  72 NW12      29.55R WCI  23
BLAINE         CLOUDY    32  30  93 NW9       29.55R WCI  24
LAKEVILLE      LGT SNOW  30  30 100 NW7       29.55R VSB 3/4 WCI  23
EDEN PRAIRIE   CLOUDY    34  28  79 NW10G18   29.55R WCI  26
SOUTH ST PAUL  CLOUDY    33  28  82 NW10      29.55R WCI  25
LAKE ELMO      CLOUDY    32  28  86 NW8       29.55R WCI  25
$$
MNZ001>005-007-008-013>017-022>024-027-028-271600-
   Northwest Minnesota

CITY           SKY/WX    TMP DP  RH WIND       PRES   REMARKS
BEMIDJI        LGT SNOW  23  18  82 N12G18    29.60S WCI  12
HALLOCK        PTSUNNY   32  23  69 N9        29.70F WCI  24
ROSEAU         CLOUDY    28  21  74 N9        29.68S WCI  20
WARROAD        PTSUNNY   27  21  80 N15       29.67F WCI  15
THIEF RVR FALL CLOUDY    30  20  66 N18       29.67F WCI  18
CROOKSTON      PTSUNNY   28  23  80 N14       29.70S WCI  17
FOSSTON        CLOUDY    25  19  80 N15       29.65S WCI  12
DETROIT LAKES  CLOUDY    27  21  80 N6G20     29.63F WCI  20
MOORHEAD       PTSUNNY   27  21  80 N7        29.70R WCI  19
PARK RAPIDS    CLOUDY    25  16  68 N9G21     29.59S WCI  15
MAHNOMEN       CLOUDY    25  20  81 N5        29.64F WCI  19
$$
MNZ006-009>011-018-025>026-271600-
   North Central Minnesota

CITY           SKY/WX    TMP DP  RH WIND       PRES   REMARKS
BAUDETTE       CLOUDY    24  16  71 NE10      29.63F WCI  14
FLAG ISLAND    FLURRIES  25  18  74 N23       29.66F WCI  10
INTL FALLS     CLOUDY    23  14  68 N10G20    29.59F WCI  12
WASKISH        CLOUDY    25  18  74 N9        29.62S WCI  15
BIG FORK       LGT SNOW  25  16  68 N7        29.56F WCI  17
LONGVILLE      CLOUDY    23  19  86 N3        29.57S
GRAND RAPIDS   FLURRIES  23  17  78 NW15      29.57R WCI  10
CRANE LAKE     CLOUDY    21  14  73 N7        29.57S WCI  13
ORR            CLOUDY    21  12  68 NW6       29.52S WCI  14
COOK           CLOUDY    21  16  79 N7        29.54S WCI  13
WALKER         CLOUDY    22  16  75 N13G18    29.59S WCI  10
$$
MNZ012-019>021-037-271600-
   Northeast Minnesota

CITY           SKY/WX    TMP DP  RH WIND       PRES   REMARKS
DULUTH         CLOUDY    24  20  84 N10       29.49S WCI  14
ELY            FLURRIES  21  14  73 NW10G16   29.50F WCI  10
HIBBING        CLOUDY    22  16  78 NW15      29.52S WCI   9
EVELETH        CLOUDY    23  15  72 N7        29.52S WCI  14
DULUTH HARBOR  CLOUDY    28  21  74 NW10      29.54S WCI  19
TWO HARBORS    CLOUDY    27  21  80 NW6       29.48F WCI  20
SILVER BAY     CLOUDY    25  21  86 NW8       29.47S WCI  16
GRAND MARAIS     N/A     25  18  74 CALM      29.46F
G MARAIS ARPRT CLOUDY    18  12  79 NW6       29.40F WCI   9
$$
MNZ029>031-032-039>041-046>048-054>057-064-271600-
   West Central Minnesota

CITY           SKY/WX    TMP DP  RH WIND       PRES   REMARKS
FERGUS FALLS   CLOUDY    27  19  74 N16G22    29.66R WCI  14
WHEATON        CLOUDY    30  21  69 NW16G29   29.69R WCI  19
MORRIS         CLOUDY    28  25  86 NW24      29.62S WCI  14
ALEXANDRIA     CLOUDY    27  21  78 N14       29.59S WCI  16
ELBOW LAKE     CLOUDY    28  22  79 N16       29.63R WCI  15
WADENA         CLOUDY    25  19  80 N10       29.59S WCI  15
GLENWOOD       CLOUDY    28  21  74 NW15G21   29.59S WCI  17
APPLETON       CLOUDY    30  23  74 NW17G25   29.64R WCI  18
BENSON         CLOUDY    32  25  74 N17       29.63R WCI  21
ORTONVILLE     CLOUDY    28  21  74 NW15G24   29.65S WCI  17
MADISON        CLOUDY    34  25  69 NW21G28   29.64S WCI  22
WILLMAR        CLOUDY    30  28  93 NW13      29.60S WCI  20
$$
MNZ033>034-036-042>043-049>051-058-059-271600-
   Central Minnesota

CITY           SKY/WX    TMP DP  RH WIND       PRES   REMARKS
ST CLOUD       CLOUDY    30  24  78 NW13      29.56S WCI  20
SAUK CENTRE    CLOUDY    28  21  77 NW14      29.59S WCI  16
PAYNESVILLE    CLOUDY    30  25  80 NW14      29.58S WCI  19
AITKIN         CLOUDY    27  19  74 N8        29.55R WCI  18
PINE RIVER     CLOUDY    25  19  80 NW7       29.62R WCI  17
BRAINERD       CLOUDY    26  19  74 NW16      29.57S WCI  14
STAPLES        CLOUDY    25  19  80 N8        29.58F WCI  16
LONG PRAIRIE   CLOUDY    28  21  74 CALM      29.58S
LITTLE FALLS   CLOUDY    28  23  80 N8G16     29.57S WCI  20
LITCHFIELD     CLOUDY    32  27  80 NW13      29.58S WCI  22
BUFFALO        CLOUDY    32  26  78 NW9       29.57S WCI  24
MAPLE LAKE     CLOUDY    31  28  89 NW8       29.57S WCI  24
HUTCHINSON     CLOUDY    33  28  82 NW15      29.58S WCI  22
$$
MNZ037-044-045-052-053-271600-
   East Central Minnesota

CITY           SKY/WX    TMP DP  RH WIND       PRES   REMARKS
PRINCETON      CLOUDY    30  25  80 NW7       29.56S WCI  23
MORA           CLOUDY    28  23  80 NW9       29.56R WCI  20
CAMBRIDGE      CLOUDY    32  21  64 NW9       29.53S WCI  24
RUSH CITY      CLOUDY    28  22  78 N8        29.55R WCI  20
MOOSE LAKE     CLOUDY    27  21  80 N8        29.52S WCI  18
HINCKLEY       CLOUDY    28  23  80 N8        29.54S WCI  20
CLOQUET        CLOUDY    25  18  74 NW14      29.51S WCI  13
MCGREGOR       CLOUDY    27  21  80 NW10      29.55R WCI  17
$$
MNZ071>073-080-081-089-090-097-098-271600-
   Southwest Minnesota

CITY           SKY/WX    TMP DP  RH WIND       PRES   REMARKS
MONTEVIDEO     CLOUDY    30  27  86 N20G25    29.62S WCI  18
GRANITE FALLS  CLOUDY    33  28  82 W18       29.64S WCI  22
CANBY          CLOUDY    32  25  74 NW18      29.65F WCI  20
MARSHALL       CLOUDY    31  24  75 N20G26    29.63S WCI  19
REDWOOD FALLS  FLURRIES  31  26  82 NW15G22   29.60S WCI  20
OLIVIA         CLOUDY    32  30  93 NW16G22   29.59S WCI  21
PIPESTONE      MOSUNNY   34  19  55 N13G23    29.63R WCI  25
WINDOM         CLOUDY    30  27  86 W17       29.61R WCI  18
WORTHINGTON      N/A     32  24  72 NW21G26   29.64  WCI  20
JACKSON        CLOUDY    30  27  86 NW16      29.63R WCI  19
TRACY          CLOUDY    31  26  83 NW20      29.63R WCI  19
SLAYTON        CLOUDY    30  24  79 NW20G25   29.62S WCI  17
$$
MNZ065>067-074>077-082>085-091>093-271600-
   South Central Minnesota

CITY           SKY/WX    TMP DP  RH WIND       PRES   REMARKS
MANKATO          N/A     34  29  82 NW14      29.58R WCI  25
NEW ULM        CLOUDY    30  28  93 NW17      29.60R FOG     WCI  18
ST JAMES       CLOUDY    30  28  93 W20       29.62R WCI  18
FAIRMONT       CLOUDY    31  27  85 NW17      29.62R WCI  19
GLENCOE        CLOUDY    32  31  93 NW8       29.57R WCI  25
FARIBAULT      CLOUDY    34  30  86 W12       29.56R WCI  25
OWATONNA       CLOUDY    34  28  80 NW14G20   29.56R WCI  24
WASECA         CLOUDY    34  30  86 NW15      29.58R WCI  24
ALBERT LEA     CLOUDY    32  28  86 NW13G18   29.57R WCI  22
$$
MNZ078>079-086>088-094>096-271600-
   Southeast Minnesota

CITY           SKY/WX    TMP DP  RH WIND       PRES   REMARKS
ROCHESTER      LGT SNOW  34  33  96 NW15      29.53R FOG     WCI  24
RED WING       LGT SNOW  34  28  80 N6        29.53S WCI  29
STANTON        CLOUDY    35  31  87 NW9       29.54R WCI  28
DODGE CENTER   CLOUDY    34  30  86 NW9       29.54R WCI  26
WINONA         CLOUDY    36  32  87 NW10      29.52S
AUSTIN         CLOUDY    34  28  80 NW16      29.56R WCI  23
PRESTON        CLOUDY    34  32  92 NW15      29.53S FOG     WCI  24
$$
ABBREVIATIONS USED IN REMARKS
   TC - TEMPERATURES IN CELSIUS
  WCI - WIND CHILL INDEX
   HX - HEAT INDEX
  VSB - VISIBILITY
$$




USA.gov is the U.S. government's official web portal to all federal, state and local government web resources and services.